Location: Chantarel
(45.1638°N, 1.7873°E)
Time: 07:55:11
(UTC+00:00)

Cosmos 2360 Rocket - Pass Details

Date: 03 March 2021
Orbit: 832 x 846 km, 71.0° (Epoch: 10 April)

Event Time Altitude Azimuth Distance (km) Brightness Sun altitude
Rises 20:20:23 0° 238° (WSW) 3,382 5.8 -28.1°
Reaches altitude 10° 20:23:08 10° 249° (WSW) 2,454 5.2 -28.6°
Maximum altitude 20:27:59 29° 309° (NW) 1,512 4.0 -29.4°
Drops below altitude 10° 20:32:52 10° 8° (N) 2,473 4.8 -30.1°
Sets 20:35:40 0° 20° (NNE) 3,414 5.4 -30.6°
